Other Public Products
Issued by NWS Charleston, SC

Current Version | Previous Version | Graphics & Text | Print | Product List | Glossary On
Versions: 1 2 3 4 5 6 7 8 9 10 11 12 13 14 15 16 17 18 19 20 21 22 23 24 25 26 27 28 29 30 31 32 33 34 35 36 37 38 39 40 41 42 43 44 45 46 47 48 49 50
000
FPUS82 KCHS 172027
OPUCHS

TEST...KCHS/KSAV Gateway Observations...TEST
National Weather Service Charleston SC
300 PM EST SUN DEC 17 2017

NOTE: "fair" indicates few or no clouds below 12,000 feet with no
significant weather and/or obstructions to visibility.

SCZ050-WAZ558-NCZ071-TXZ119-213-PAZ071-DCZ001-FLZ074-172-MI076-
NYZ176-178-MAZ016-IL014-TNZ027-NJZ106-GAZ044-MD014-172100-

...Gateway Observations for Charleston International...

CITY           SKY/WX    TMP DP  RH WIND       PRES   REMARKS
Chas Airport   MOSUNNY   63  36  36 S7        30.22S
Seattle        CLOUDY    48  44  86 S18       30.07F
Charlotte      CLOUDY    53  29  39 SW9       30.19F
Dallas DFW     CLOUDY    52  46  80 S13       30.04S
Dallas Love    CLOUDY    51  45  79 S9        30.06S
Philladelphia  CLOUDY    44  28  53 CALM      30.22S
Wash National  CLOUDY    50  32  50 SW3       30.20S
Baltimore      CLOUDY    44  33  65 E5        30.19S
Miami          PTSUNNY   80  67  64 SE13      30.17S
Detroit        CLOUDY    36  30  79 E5        30.10F WCI  32
Newark         CLOUDY    37  24  59 NE5       30.24S WCI  33
Laguardia      CLOUDY    37  24  59 NE6       30.23F WCI  32
J F K          PTSUNNY   37  25  61 CALM      30.25S
Boston Logan   CLOUDY    29   2  31 NW8       30.21F WCI  21
Ft. Lauderdale MOSUNNY   78  69  73 E13       30.17S
Chicago O`Hare CLOUDY    40  34  79 CALM      29.97F HAZE
Chicago Midway CLOUDY    45  32  60 SW5       29.98F
Houston Bush   CLOUDY    59  53  80 CALM      30.06F
Houston Hobby  CLOUDY    63  56  78 CALM      30.05F
Nashville      CLOUDY    46  41  82 S3        30.11S
Atlanta        LGT RAIN  43  42  97 E6        30.17S FOG

$$

GAZ044-118-TXZ119-213-NCZ071-DCZ001-MDZ014-506-PAZ021-071-NJZ106-
NYZ176-178-MAZ106-OHZ011-021-055-MIZ076-KYZ091-ILZ014-INZ047-
MNZ060-ONZ431-172100-

...Gateway Observations for Savannah International...

CITY           SKY/WX    TMP DP  RH WIND       PRES   REMARKS
Savannah Arpt  CLOUDY    64  44  48 CALM      30.23R
Atlanta        LGT RAIN  43  42  97 E6        30.17S FOG
Charlotte      CLOUDY    53  29  39 SW9       30.19F
Dallas DFW     CLOUDY    52  46  80 S13       30.04S
Houston Bush   CLOUDY    59  53  80 CALM      30.06F
Wash National  CLOUDY    50  32  50 SW3       30.20S
Wash Dulles    CLOUDY    50  27  40 SE3       30.18F
Baltimore      CLOUDY    44  33  65 E5        30.19S
Philadelphia   CLOUDY    44  28  53 CALM      30.22S
Newark         CLOUDY    37  24  59 NE5       30.24S WCI  33
Laguardia      CLOUDY    37  24  59 NE6       30.23F WCI  32
J F K          PTSUNNY   37  25  61 CALM      30.25S
Boston         CLOUDY    29   2  31 NW8       30.21F WCI  21
Pittsburg      CLOUDY    42  29  59 S5        30.10S
Akron          CLOUDY    38  29  70 SW9       30.09R WCI  31
Cleveland      CLOUDY    37  31  78 CALM      30.11S
Cincinnati     CLOUDY    45  33  63 S5        30.09F
Columbus       CLOUDY    42  32  69 CALM      30.13F
Detroit        CLOUDY    36  30  79 E5        30.10F WCI  32
Chicago O`Hare CLOUDY    40  34  79 CALM      29.97F HAZE
Minneapolis    CLOUDY    28  25  88 VRB3      30.01F FOG
Indianapolis   CLOUDY    42  38  85 CALM      30.06F
Toronto Canada CLOUDY    19   3  49 NE8       30.20F WCI   9

$$




USA.gov is the U.S. government's official web portal to all federal, state and local government web resources and services.